When you browse on this site, cookies collect data to enhance your experience and personalize the content and advertising you see.
Visit our Privacy Policy to learn more. By continuing to use the site, you agree to this use of cookies and data.
  • în România
  • Lista ţărilor
  • Pe 7 zile
  • Temperatura apei
  • Hartă satelitară
  • Meteo pe hartă
  • Widget-uri
  • user-avatar
    Intrare

    Meteo pe oră la Kowary

    Astăzi, 18 Februarie, Luni

    Timp Temperatura Precipitaţii Vânt Presiune Umiditate
    00:00 +5°C° 0 mm 1 m/s 746 mmHg 75%
    01:00 +5°C° 0 mm 1 m/s 746 mmHg 77%
    02:00 +4°C° 0 mm 1 m/s 746 mmHg 77%
    03:00 +4°C° 0 mm 1 m/s 746 mmHg 77%
    04:00 +4°C° 0 mm 1 m/s 745 mmHg 76%
    05:00 +4°C° 0 mm 1 m/s 745 mmHg 75%
    06:00 +3°C° 0 mm 1 m/s 745 mmHg 73%
    07:00 +3°C° 0 mm 1 m/s 745 mmHg 72%
    08:00 +5°C° 0 mm 1 m/s 745 mmHg 65%
    09:00 +6°C° 0 mm 1 m/s 745 mmHg 59%
    10:00 +8°C° 0 mm 1 m/s 745 mmHg 52%
    11:00 +9°C° 0 mm 1 m/s 745 mmHg 48%
    12:00 +10°C° 0 mm 1 m/s 745 mmHg 44%
    13:00 +11°C° 0 mm 1 m/s 744 mmHg 40%
    14:00 +11°C° 0 mm 1 m/s 744 mmHg 42%
    15:00 +11°C° 0 mm 1 m/s 744 mmHg 44%
    16:00 +11°C° 0 mm 1 m/s 744 mmHg 46%
    17:00 +10°C° 0 mm 1 m/s 744 mmHg 50%
    18:00 +9°C° 0 mm 1 m/s 744 mmHg 54%
    19:00 +7°C° 0 mm 1 m/s 743 mmHg 58%
    20:00 +7°C° 0 mm 1 m/s 743 mmHg 62%
    21:00 +6°C° 0 mm 1 m/s 743 mmHg 66%
    22:00 +6°C° 0 mm 1 m/s 743 mmHg 70%
    23:00 +6°C° 0 mm 1 m/s 743 mmHg 71%

    Mâine, 19 Februarie, Marţi

    Timp Temperatura Precipitaţii Vânt Presiune Umiditate
    00:00 +5°C° 0 mm 1 m/s 743 mmHg 72%
    01:00 +5°C° 0 mm 1 m/s 743 mmHg 74%
    02:00 +4°C° 0 mm 1 m/s 743 mmHg 72%
    03:00 +4°C° 0 mm 1 m/s 742 mmHg 71%
    04:00 +4°C° 0 mm 1 m/s 742 mmHg 69%
    05:00 +4°C° 0 mm 1 m/s 742 mmHg 68%
    06:00 +3°C° 0 mm 1 m/s 742 mmHg 66%
    07:00 +3°C° 0 mm 1 m/s 742 mmHg 65%
    08:00 +5°C° 0 mm 1 m/s 741 mmHg 59%
    09:00 +6°C° 0 mm 2 m/s 741 mmHg 54%
    10:00 +7°C° 0 mm 2 m/s 741 mmHg 49%
    11:00 +9°C° 0 mm 2 m/s 741 mmHg 46%
    12:00 +10°C° 0 mm 3 m/s 741 mmHg 44%
    13:00 +11°C° 0 mm 3 m/s 740 mmHg 42%
    14:00 +11°C° 0 mm 3 m/s 740 mmHg 45%
    15:00 +11°C° 0 mm 3 m/s 740 mmHg 49%
    16:00 +11°C° 0 mm 3 m/s 739 mmHg 52%
    17:00 +8°C° 0 mm 4 m/s 740 mmHg 58%
    18:00 +7°C° 0 mm 4 m/s 740 mmHg 65%
    19:00 +5°C° 0 mm 4 m/s 740 mmHg 71%
    20:00 +5°C° 0 mm 4 m/s 740 mmHg 73%
    21:00 +5°C° 0 mm 4 m/s 740 mmHg 74%
    22:00 +4°C° 0 mm 4 m/s 740 mmHg 76%
    23:00 +3°C° 0.1 mm 5 m/s 740 mmHg 77%

    Poimâine, 20 Februarie, Miercuri

    Timp Temperatura Precipitaţii Vânt Presiune Umiditate
    00:00 +3°C° 0.1 mm 5 m/s 740 mmHg 78%
    01:00 +3°C° 0.1 mm 5 m/s 740 mmHg 79%
    02:00 +3°C° 0.4 mm 5 m/s 741 mmHg 83%
    03:00 +3°C° 0.4 mm 5 m/s 741 mmHg 86%
    04:00 +4°C° 0.4 mm 4 m/s 741 mmHg 90%
    05:00 +3°C° 0 mm 4 m/s 741 mmHg 90%
    06:00 +2°C° 0 mm 5 m/s 741 mmHg 90%
    07:00 +2°C° 0 mm 5 m/s 742 mmHg 90%
    08:00 +3°C° 0 mm 5 m/s 742 mmHg 83%
    09:00 +3°C° 0 mm 5 m/s 742 mmHg 76%
    10:00 +4°C° 0 mm 6 m/s 743 mmHg 68%
    11:00 +5°C° 0 mm 6 m/s 743 mmHg 66%
    12:00 +5°C° 0 mm 6 m/s 743 mmHg 64%
    13:00 +6°C° 0 mm 7 m/s 743 mmHg 62%
    14:00 +7°C° 0 mm 6 m/s 743 mmHg 62%
    15:00 +5°C° 0 mm 6 m/s 743 mmHg 61%
    16:00 +6°C° 0 mm 5 m/s 743 mmHg 61%
    17:00 +6°C° 0 mm 5 m/s 743 mmHg 63%
    18:00 +5°C° 0 mm 4 m/s 744 mmHg 66%
    19:00 +5°C° 0 mm 4 m/s 744 mmHg 68%
    20:00 +5°C° 0 mm 4 m/s 744 mmHg 70%
    21:00 +5°C° 0 mm 4 m/s 744 mmHg 73%
    22:00 +5°C° 0 mm 4 m/s 745 mmHg 75%
    23:00 +4°C° 0 mm 4 m/s 745 mmHg 77%

    21 Februarie, Joi

    Timp Temperatura Precipitaţii Vânt Presiune Umiditate
    00:00 +4°C° 0 mm 4 m/s 745 mmHg 78%
    01:00 +3°C° 0 mm 4 m/s 745 mmHg 80%
    02:00 +3°C° 0 mm 4 m/s 745 mmHg 81%
    03:00 +3°C° 0 mm 4 m/s 745 mmHg 81%
    04:00 +1°C° 0 mm 4 m/s 745 mmHg 82%
    05:00 +1°C° 0 mm 4 m/s 745 mmHg 82%
    06:00 +1°C° 0 mm 4 m/s 745 mmHg 82%
    07:00 +1°C° 0 mm 4 m/s 745 mmHg 82%
    08:00 +3°C° 0.2 mm 4 m/s 745 mmHg 79%
    09:00 +3°C° 0.2 mm 5 m/s 745 mmHg 75%
    10:00 +5°C° 0.2 mm 5 m/s 745 mmHg 72%
    11:00 +5°C° 0.3 mm 5 m/s 745 mmHg 71%
    12:00 +5°C° 0.3 mm 5 m/s 745 mmHg 70%
    13:00 +6°C° 0.3 mm 5 m/s 745 mmHg 69%
    14:00 +6°C° 0.2 mm 5 m/s 745 mmHg 72%
    15:00 +6°C° 0.2 mm 5 m/s 745 mmHg 75%
    16:00 +5°C° 0.2 mm 4 m/s 745 mmHg 77%
    17:00 +5°C° 0.1 mm 4 m/s 745 mmHg 79%
    18:00 +5°C° 0.1 mm 4 m/s 745 mmHg 81%
    19:00 +5°C° 0.1 mm 4 m/s 745 mmHg 84%
    20:00 +5°C° 0.3 mm 4 m/s 746 mmHg 85%
    21:00 +5°C° 0.3 mm 4 m/s 746 mmHg 87%
    22:00 +4°C° 0.3 mm 4 m/s 746 mmHg 89%
    23:00 +4°C° 0.1 mm 3 m/s 746 mmHg 90%

    22 Februarie, Vineri

    Timp Temperatura Precipitaţii Vânt Presiune Umiditate
    00:00 +4°C° 0.1 mm 3 m/s 747 mmHg 91%
    01:00 +4°C° 0.1 mm 3 m/s 747 mmHg 92%
    02:00 +4°C° 0 mm 3 m/s 747 mmHg 93%
    03:00 +4°C° 0 mm 3 m/s 747 mmHg 93%
    04:00 +4°C° 0 mm 3 m/s 748 mmHg 94%
    05:00 +4°C° 0 mm 3 m/s 748 mmHg 94%
    06:00 +4°C° 0 mm 3 m/s 749 mmHg 94%
    07:00 +4°C° 0 mm 3 m/s 749 mmHg 95%
    08:00 +4°C° 0.1 mm 3 m/s 750 mmHg 92%
    09:00 +5°C° 0.1 mm 4 m/s 750 mmHg 88%
    10:00 +5°C° 0.1 mm 4 m/s 751 mmHg 85%
    11:00 +5°C° 0 mm 4 m/s 751 mmHg 82%
    12:00 +5°C° 0 mm 4 m/s 752 mmHg 79%
    13:00 +5°C° 0 mm 4 m/s 752 mmHg 76%
    14:00 +5°C° 0 mm 4 m/s 752 mmHg 69%
    15:00 +5°C° 0 mm 4 m/s 753 mmHg 63%
    16:00 +5°C° 0 mm 4 m/s 753 mmHg 56%
    17:00 +4°C° 0 mm 3 m/s 754 mmHg 55%
    18:00 +3°C° 0 mm 3 m/s 754 mmHg 55%
    19:00 +1°C° 0 mm 3 m/s 755 mmHg 54%
    20:00 +2°C° 0 mm 2 m/s 755 mmHg 56%
    21:00 +1°C° 0 mm 2 m/s 756 mmHg 58%
    22:00 -1°C° 0 mm 2 m/s 756 mmHg 60%
    23:00 +1°C° 0 mm 1 m/s 756 mmHg 61%

    23 Februarie, Sâmbătă

    Timp Temperatura Precipitaţii Vânt Presiune Umiditate
    00:00 +1°C° 0 mm 1 m/s 757 mmHg 61%
    01:00 0°C° 0 mm 1 m/s 757 mmHg 61%
    02:00 0°C° 0 mm 1 m/s 757 mmHg 60%
    03:00 0°C° 0 mm 1 m/s 757 mmHg 59%
    04:00 0°C° 0 mm 1 m/s 757 mmHg 59%
    05:00 0°C° 0 mm 1 m/s 757 mmHg 58%
    06:00 0°C° 0 mm 1 m/s 757 mmHg 57%
    07:00 -1°C° 0 mm 0 m/s 758 mmHg 56%
    08:00 0°C° 0 mm 0 m/s 758 mmHg 50%
    09:00 +1°C° 0 mm 0 m/s 758 mmHg 44%
    10:00 +2°C° 0 mm 0 m/s 758 mmHg 39%
    11:00 +3°C° 0 mm 0 m/s 757 mmHg 36%
    12:00 +4°C° 0 mm 0 m/s 757 mmHg 34%
    13:00 +5°C° 0 mm 0 m/s 757 mmHg 32%
    14:00 +6°C° 0 mm 1 m/s 756 mmHg 34%
    15:00 +6°C° 0 mm 1 m/s 756 mmHg 36%
    16:00 +7°C° 0 mm 1 m/s 756 mmHg 38%
    17:00 +5°C° 0 mm 2 m/s 756 mmHg 42%
    18:00 +5°C° 0 mm 2 m/s 756 mmHg 46%
    19:00 +4°C° 0 mm 2 m/s 756 mmHg 49%
    20:00 +4°C° 0 mm 2 m/s 755 mmHg 54%
    21:00 +2°C° 0 mm 3 m/s 755 mmHg 58%
    22:00 +2°C° 0 mm 3 m/s 755 mmHg 62%
    23:00 +1°C° 0 mm 3 m/s 755 mmHg 67%
    Arată mai mult